Theta_e
292 292 291 291 291 291 290 290 289 289 290 289 290 289 289 289 290 290 289 290 290 290 291 291 290 291 291 291 291 291 291 291 291 291 291 292 293 296 302 304 305 306 308 311 313 314 316 317 319 320 320 320 321 321 322 322 323 324 324 325 327 329 329 329 330 332 337 339 340 340 341 342 342 345 346 346 345 344 344 344 344 345 344 343 343
291 290 290 290 290 290 290 289 288 289 289 289 290 289 289 289 289 289 290 289 289 290 291 290 290 290 290 290 290 290 291 291 291 291 291 292 292 293 299 302 303 305 306 308 311 312 314 315 317 318 319 319 320 321 321 321 321 321 322 323 324 325 327 329 330 330 332 335 338 339 340 341 341 341 344 345 345 345 344 344 344 343 344 344 344
291 290 290 289 290 290 290 289 287 288 288 288 290 290 289 289 289 289 289 289 289 289 289 289 289 289 289 289 290 290 290 290 291 291 291 291 291 292 294 299 301 303 305 307 308 310 312 313 314 315 316 317 318 319 320 320 321 321 320 320 321 322 323 324 326 328 330 332 335 337 339 340 340 341 339 343 344 344 343 343 343 343 342 343 344
291 291 290 289 289 289 289 288 287 288 288 288 289 289 289 289 289 290 289 289 289 288 289 288 287 288 288 288 289 289 289 290 290 290 290 290 290 291 292 294 299 302 304 306 307 309 310 310 311 312 314 315 317 318 319 319 319 320 320 320 321 322 322 323 323 324 326 329 332 334 337 339 340 339 340 339 340 343 343 342 342 342 343 343 343
290 291 292 289 289 289 288 288 288 287 288 289 289 288 287 287 288 289 288 289 288 288 289 288 287 287 287 288 288 288 289 289 289 289 289 289 290 290 291 293 293 299 302 304 306 307 308 309 310 311 313 314 315 316 317 317 317 318 319 319 320 322 322 322 322 323 324 326 327 331 334 336 339 340 339 339 339 338 341 342 342 342 342 343 343
290 289 289 288 289 288 287 287 287 288 288 288 287 287 287 287 288 287 290 288 286 286 286 286 286 286 286 287 287 287 287 288 288 288 289 289 289 290 291 291 292 293 295 302 305 306 307 308 308 310 311 311 312 313 315 316 317 318 319 319 320 321 322 322 322 323 324 324 325 326 327 330 335 337 340 338 338 339 338 339 342 342 343 343 343
290 289 288 288 288 287 287 287 287 287 286 287 286 286 286 286 287 287 286 285 285 287 286 285 285 285 286 287 286 287 287 287 288 288 288 289 289 290 291 291 292 293 295 294 298 302 305 307 308 308 309 309 310 311 313 315 316 317 317 318 319 319 319 319 320 320 320 321 322 323 325 327 327 330 336 339 339 337 339 339 338 341 343 343 342
289 289 288 287 287 287 287 287 287 287 286 287 287 286 286 287 287 286 284 284 286 285 285 284 285 285 286 286 287 288 287 287 287 287 288 288 289 290 291 291 292 292 296 294 295 297 303 306 307 308 308 308 308 309 312 314 314 315 316 317 317 317 318 318 319 319 320 320 320 320 321 323 326 327 329 334 338 339 340 340 339 338 339 341 342
289 289 288 287 287 287 286 287 288 286 286 285 285 287 286 288 285 287 285 284 284 284 284 284 284 285 286 286 286 287 286 286 286 287 289 288 288 289 290 291 293 297 294 294 295 295 299 304 306 307 308 309 306 307 309 312 312 313 315 316 316 316 316 317 319 320 320 320 321 321 322 321 322 324 327 329 333 337 338 339 340 339 339 339 339
289 288 287 287 287 287 287 287 287 285 285 285 285 285 285 285 284 285 285 284 283 283 283 284 285 285 285 285 285 285 286 286 286 289 287 287 288 289 290 291 292 293 293 294 294 295 295 299 303 305 306 306 306 306 308 309 309 311 313 314 314 314 314 315 316 317 318 318 318 318 318 318 320 323 323 326 329 331 335 337 339 339 339 339 339
288 288 287 288 286 286 286 286 286 285 285 285 284 286 285 284 283 283 285 284 283 284 284 284 284 284 284 285 285 285 286 286 286 285 285 286 288 291 293 292 293 293 294 294 294 294 295 295 294 294 295 302 305 305 306 307 307 309 311 311 312 312 312 313 314 314 314 315 315 316 316 316 317 318 322 324 325 329 333 335 336 338 339 340 339
288 288 287 287 286 286 286 286 286 285 284 284 283 283 283 283 283 284 284 284 285 284 283 283 283 283 284 285 285 284 284 285 284 285 286 286 287 289 290 292 291 291 290 289 289 289 292 292 292 292 293 297 303 304 305 305 306 306 308 310 310 311 312 312 312 312 313 314 315 315 316 317 318 318 318 322 325 325 327 332 335 336 337 339 339
288 287 286 287 286 285 285 285 285 285 284 284 284 283 284 284 284 285 284 282 282 282 283 283 282 281 282 282 282 283 285 285 284 285 286 287 287 285 285 285 285 285 285 287 288 289 290 291 291 291 292 292 295 300 302 303 304 304 306 306 308 309 310 309 309 310 311 312 313 314 316 317 318 320 319 319 321 323 326 326 329 335 336 337 337
288 287 287 286 285 285 285 285 285 284 285 284 283 287 284 283 283 281 282 282 281 282 284 282 279 279 279 280 281 281 283 284 283 284 284 285 285 284 284 284 285 286 287 287 287 287 288 289 289 290 291 292 292 293 294 295 297 303 304 305 306 307 308 308 308 310 311 311 311 312 313 314 315 316 318 321 323 323 324 327 328 329 334 337 337
287 287 286 286 285 285 285 284 284 285 283 283 283 282 282 282 282 282 281 281 282 284 282 283 279 280 280 279 277 278 282 281 282 284 284 284 284 283 285 285 286 286 285 285 285 286 287 288 289 290 290 291 291 292 293 295 294 299 301 301 302 304 305 307 308 310 310 310 310 311 312 313 314 315 315 316 317 319 321 325 328 330 330 333 336
287 287 286 286 285 285 284 284 284 284 283 282 282 281 282 282 282 283 281 279 279 279 283 282 280 280 276 277 276 277 276 276 279 282 283 283 283 284 284 285 285 284 285 285 286 286 287 288 289 289 289 290 290 291 291 291 294 296 295 297 300 301 303 305 307 308 309 309 309 310 311 312 313 315 316 316 316 317 319 320 322 326 331 333 336
287 286 286 285 285 284 284 284 283 283 283 282 281 282 282 282 282 282 280 280 279 279 280 282 281 282 280 277 275 275 275 276 279 280 281 282 283 283 284 284 283 284 284 285 286 286 286 287 287 288 288 289 289 289 290 290 291 293 292 292 295 297 299 303 306 307 308 309 310 310 311 311 312 313 315 316 316 317 318 318 319 322 325 330 333
286 286 286 285 284 284 283 283 283 283 283 282 282 281 281 281 281 281 280 281 280 279 278 281 283 282 282 280 280 275 275 278 278 275 281 282 282 282 282 282 282 284 284 284 284 285 286 287 287 288 288 288 288 288 288 289 291 289 288 289 295 297 298 300 304 306 307 309 309 309 311 311 311 312 313 315 316 317 317 318 318 320 322 326 330
286 285 285 285 284 284 284 283 283 282 283 282 281 281 281 281 282 281 281 283 280 278 278 278 279 279 281 281 281 282 280 278 275 277 274 278 278 280 281 282 282 283 283 283 284 285 285 285 285 285 285 286 287 288 288 287 289 290 292 294 295 296 297 298 299 302 305 307 308 308 309 309 310 310 311 312 313 314 316 317 316 317 318 321 325
286 285 285 285 284 283 283 283 282 282 283 281 281 281 282 282 282 281 281 281 280 279 278 278 278 277 281 280 279 280 279 278 278 277 276 274 275 279 279 281 282 281 282 283 283 283 283 283 284 284 284 285 286 286 286 286 286 286 288 293 294 295 297 297 298 299 300 303 306 307 308 309 310 310 309 310 311 312 313 315 316 316 316 316 318
285 285 284 284 284 283 283 282 282 282 283 282 281 281 281 280 280 280 279 280 280 280 279 278 277 277 278 277 277 277 277 277 278 277 275 274 275 275 276 278 280 281 282 282 282 282 283 283 283 284 285 285 284 284 285 285 285 286 289 292 293 295 296 297 297 298 298 299 302 305 307 309 310 310 311 311 311 311 312 313 315 316 316 315 316
284 284 283 283 283 283 282 282 281 281 282 281 280 280 280 280 280 279 279 279 279 280 279 278 279 278 278 278 277 276 276 276 276 275 276 276 274 275 276 276 275 277 280 281 281 281 282 283 282 283 283 283 283 284 284 284 285 286 288 291 292 294 295 295 297 298 298 299 299 301 303 305 307 308 310 311 311 312 312 312 313 315 316 315 317
283 283 283 283 282 282 281 281 281 282 282 280 280 280 280 280 280 279 280 279 279 279 280 280 279 279 278 278 277 277 276 276 275 276 275 274 275 275 276 277 276 276 278 280 281 281 282 282 282 282 282 283 283 283 284 284 287 288 291 291 292 293 294 295 296 296 296 297 297 298 299 301 302 304 306 308 309 310 311 311 311 313 314 315 315
283 282 282 282 282 281 281 281 281 281 280 280 280 280 280 280 279 279 278 278 278 279 278 277 277 278 277 277 277 278 278 277 277 277 276 276 275 275 275 276 276 277 279 279 280 280 280 280 281 282 282 282 282 283 284 284 285 289 289 289 290 291 293 295 294 294 295 296 297 298 299 300 301 302 305 307 309 310 310 311 311 311 313 315 315
282 282 282 282 282 281 280 280 280 280 280 279 279 279 279 278 278 278 277 277 278 277 277 277 277 277 277 277 277 278 277 278 278 277 277 276 275 274 275 276 274 275 277 277 277 278 280 280 281 281 280 281 283 283 283 284 283 287 288 288 289 290 290 291 292 292 293 294 294 295 297 298 299 301 303 305 308 310 312 312 311 312 312 315 316
282 282 282 282 281 281 281 280 280 280 279 279 278 278 278 278 278 277 277 277 277 277 277 277 277 277 277 277 276 276 277 278 276 277 276 276 275 275 274 275 275 275 276 276 277 277 277 278 279 280 280 280 281 282 282 282 283 286 287 286 286 287 288 290 291 291 292 292 293 293 294 295 296 297 298 302 305 306 309 311 312 313 314 313 314
283 282 282 281 281 280 280 279 279 279 279 279 279 278 278 278 278 277 277 276 276 277 277 276 277 276 276 276 277 276 276 276 277 277 277 276 276 276 275 273 273 274 274 276 276 276 276 278 280 279 279 280 280 280 281 281 284 286 286 283 282 285 286 288 290 291 290 291 291 292 293 294 295 297 297 299 302 304 306 308 310 311 313 314 313
282 281 281 281 280 280 280 279 278 278 278 278 278 278 277 277 277 277 276 278 276 276 276 276 276 276 276 276 275 275 276 277 277 277 277 277 277 276 276 274 272 270 273 273 274 275 277 277 278 278 278 279 280 280 283 283 282 285 285 281 281 282 285 287 288 289 290 290 291 292 293 293 294 294 295 296 297 298 300 302 304 305 304 304 305
281 281 281 280 280 279 279 278 278 278 278 277 277 277 277 277 276 275 275 275 276 275 276 276 275 275 275 275 275 276 275 276 276 277 277 277 277 276 276 275 275 272 271 271 272 273 275 276 275 276 278 279 279 280 280 279 281 282 281 281 280 280 283 286 287 289 291 292 291 291 291 291 292 292 293 294 295 296 297 298 299 301 303 304 304
281 281 280 279 279 279 278 277 277 277 277 277 277 276 276 276 275 275 275 275 275 275 276 275 275 275 276 275 275 275 275 275 276 276 276 276 275 276 275 275 275 273 273 271 271 274 275 276 276 276 278 277 278 278 279 279 282 281 280 280 280 280 284 285 286 287 288 289 289 290 290 290 291 291 291 292 292 294 296 297 298 300 301 303 305
280 280 279 278 278 278 277 277 276 276 276 276 276 276 275 275 275 275 275 275 274 274 274 275 275 275 274 274 274 274 275 275 275 275 276 276 275 275 275 275 275 275 274 273 270 274 276 275 276 277 276 277 277 277 278 278 280 280 279 279 279 281 282 282 283 285 286 287 288 289 289 289 289 290 290 291 293 294 295 296 297 298 299 301 303
280 279 278 278 277 277 276 276 276 276 275 275 275 275 275 275 275 275 274 274 274 274 274 274 275 275 273 273 273 273 274 274 274 274 274 275 275 274 274 274 274 274 274 273 271 271 275 275 275 275 276 275 276 275 276 277 278 280 278 277 278 280 279 279 281 283 284 286 287 287 288 288 289 289 289 290 291 293 294 295 296 297 298 300 302
279 278 278 277 277 276 276 276 275 275 275 275 275 275 274 274 274 274 274 274 273 273 273 273 273 273 273 272 273 273 273 272 273 273 273 273 273 273 274 273 273 273 273 272 270 270 273 275 274 274 274 274 273 274 274 275 275 276 278 276 277 277 277 278 278 281 283 284 285 285 286 287 288 288 289 290 291 292 293 294 295 296 297 299 299
278 278 277 277 276 276 275 275 275 275 275 275 274 274 274 273 273 274 273 273 272 272 272 272 272 273 272 271 272 272 272 272 272 272 272 272 272 272 272 272 272 272 273 271 271 270 269 272 272 273 272 274 272 274 273 273 273 275 275 276 277 277 276 277 276 277 281 282 284 285 287 287 288 289 289 290 291 293 293 294 294 295 297 298 298
277 277 277 276 276 275 275 275 275 274 274 274 274 274 273 273 272 272 273 272 272 272 271 271 271 271 271 271 271 271 271 271 271 271 271 271 271 271 271 271 271 271 272 272 270 268 268 269 271 270 271 272 272 272 273 274 274 274 273 274 275 276 276 276 276 276 280 282 284 285 286 287 288 289 289 290 291 291 292 293 294 294 294 297 299
277 276 276 276 275 275 274 274 274 274 274 273 273 273 273 272 272 272 272 272 272 271 271 271 270 270 270 270 270 270 270 270 270 270 271 271 270 270 270 271 271 270 271 271 271 270 269 268 270 270 271 271 272 273 273 274 273 273 273 274 275 275 275 276 276 275 278 282 283 285 286 287 287 288 288 289 290 291 292 292 293 294 294 294 295
276 275 275 275 275 274 274 274 273 273 273 273 272 272 272 272 272 271 271 271 271 271 271 270 271 270 270 269 270 270 270 269 269 270 270 270 270 270 270 270 270 271 271 271 271 271 270 269 269 271 272 272 273 273 274 272 273 273 273 273 274 274 274 275 276 277 280 282 283 283 284 284 286 287 288 289 289 290 291 292 293 293 293 294 294
275 275 275 274 274 274 274 273 273 273 272 272 272 271 271 271 271 271 271 271 271 271 270 270 270 269 269 269 270 270 270 269 269 270 270 270 270 270 270 271 271 271 271 271 271 271 270 270 270 270 272 272 272 272 273 273 273 272 272 273 274 274 274 274 275 276 277 277 277 278 280 281 283 285 286 287 289 289 290 291 292 293 293 293 293
275 274 274 274 274 273 273 272 272 272 271 271 270 270 270 270 270 270 270 270 270 270 270 270 270 270 270 270 270 270 270 270 270 270 270 271 271 271 271 271 272 271 271 271 271 271 270 270 271 271 271 272 273 271 273 275 274 274 272 272 272 274 274 274 274 275 276 277 279 282 281 281 283 283 284 286 288 289 290 291 292 292 292 292 294
274 274 273 273 272 272 271 271 271 271 270 270 269 269 269 269 269 269 269 269 270 270 270 270 270 270 271 271 271 271 271 271 271 271 272 271 272 272 272 272 272 272 271 271 271 271 271 271 270 270 271 271 272 274 274 274 273 273 274 273 271 272 273 274 275 274 275 276 276 277 280 281 281 283 284 285 287 289 290 290 291 291 292 292 293
274 273 273 272 271 270 270 270 269 270 269 269 269 269 269 269 269 269 270 270 270 270 270 270 271 271 272 272 272 272 273 275 276 276 276 276 274 274 275 275 274 274 273 272 271 271 271 271 270 271 271 271 272 272 271 272 271 272 273 273 272 273 274 274 274 276 276 275 276 276 277 278 278 279 281 282 283 284 284 285 286 288 290 292 294
272 271 271 270 270 270 269 269 269 269 269 269 271 274 273 270 270 270 270 270 270 270 270 271 272 273 273 273 274 276 276 277 277 278 278 278 279 277 276 275 275 274 274 273 273 273 271 270 270 270 270 270 271 272 272 273 274 275 274 273 272 273 273 274 275 276 278 277 276 275 277 279 279 279 280 280 282 283 283 285 287 289 290 292 294
270 269 269 269 269 269 269 268 268 268 269 269 274 276 276 275 271 271 270 271 271 271 272 272 272 273 274 274 274 275 275 276 275 277 277 278 278 279 279 279 279 276 274 273 273 274 273 272 273 273 272 272 273 274 273 274 274 274 273 274 273 273 272 271 270 275 279 278 277 276 277 279 279 278 279 280 281 283 283 283 285 286 289 291 292
269 268 269 269 268 268 269 269 269 269 269 272 275 276 277 278 276 271 271 271 272 273 273 273 273 274 274 274 274 274 274 274 274 274 276 277 278 278 278 279 279 279 280 276 274 274 274 273 272 273 273 272 273 273 273 273 273 273 274 274 273 273 272 272 272 271 277 280 277 276 275 278 279 278 278 280 281 281 282 284 286 287 288 289 291
268 268 268 268 268 268 268 268 268 269 269 274 276 277 277 278 278 277 274 274 273 273 274 274 274 274 274 273 273 273 274 276 275 274 274 274 276 277 278 278 278 279 279 280 280 277 276 274 273 273 273 273 273 273 274 274 275 273 274 273 273 273 273 272 272 273 275 278 276 274 273 275 276 276 277 279 280 280 281 284 286 287 288 291 292
268 268 267 267 267 267 268 268 269 269 269 274 277 277 277 278 278 278 275 274 274 274 274 274 274 274 273 272 272 272 273 273 274 274 274 274 274 274 274 275 275 277 279 279 279 279 278 275 274 273 274 275 273 274 275 276 274 273 273 273 274 273 273 272 274 274 275 277 275 274 273 274 276 276 276 278 280 280 281 284 286 288 289 291 292
267 267 267 267 267 268 269 269 269 269 269 275 277 277 277 277 278 277 275 275 274 274 274 274 273 273 273 273 272 272 273 273 273 274 274 274 275 275 275 275 275 276 276 275 275 275 275 275 275 275 275 275 275 276 276 276 276 275 275 274 274 274 274 275 275 275 275 277 276 275 271 274 277 276 276 278 280 280 281 284 286 289 291 292 293
267 267 267 267 267 268 269 268 269 269 270 275 276 276 276 277 277 275 275 274 274 273 272 273 272 273 273 273 272 272 273 273 275 277 277 275 275 274 274 274 274 274 275 277 279 279 278 277 277 277 277 277 279 278 278 278 277 277 277 276 276 275 274 272 271 273 273 276 277 275 273 274 277 276 276 279 280 280 282 284 288 290 291 292 293
267 267 267 267 268 268 268 268 268 268 269 273 275 275 276 277 276 274 274 273 272 272 272 272 272 272 273 273 273 273 273 273 275 277 278 277 274 274 273 273 273 274 274 276 278 279 279 279 280 280 281 281 281 282 282 282 280 279 277 275 274 275 272 271 271 272 273 276 277 277 275 274 277 277 277 279 280 281 282 282 283 287 288 291 293
267 267 268 267 268 268 268 268 268 267 267 271 274 275 275 276 276 273 273 272 271 271 271 272 272 272 273 275 275 274 273 273 275 277 278 276 274 274 273 273 273 272 273 274 274 274 277 278 278 279 279 280 280 280 280 280 280 279 274 272 274 275 273 273 272 273 275 276 278 279 276 275 277 278 277 279 280 282 282 283 284 286 289 291 291
267 268 268 267 267 267 268 267 270 268 267 270 274 274 275 276 275 274 273 271 271 271 271 271 272 272 273 274 275 275 274 274 276 277 277 276 274 274 273 272 271 271 271 272 271 271 273 273 273 273 272 273 272 271 272 277 278 277 275 274 275 274 273 273 273 273 272 274 277 280 275 275 276 278 278 277 276 280 282 282 283 284 285 286 287
Wind_Speed
6 5 4 4 4 4 5 5 5 4 5 5 4 3 3 3 3 3 4 5 5 6 5 6 5 5 6 6 6 6 6 6 5 5 4 5 5 6 12 15 17 18 18 18 18 17 17 17 17 16 16 16 16 15 15 15 14 14 15 16 17 18 18 18 17 17 16 14 14 16 16 18 18 16 17 17 17 16 17 20 18 16 20 22 23
6 4 6 4 4 4 5 5 5 4 5 3 1 1 1 2 3 3 4 5 5 5 5 6 6 6 6 6 7 6 6 6 7 6 6 5 5 6 10 13 15 18 18 17 17 17 17 17 17 16 16 16 16 15 15 14 14 14 14 15 16 17 18 18 18 18 16 16 15 14 16 17 17 19 18 17 17 17 17 18 20 20 21 22 25
6 5 5 5 4 4 5 5 5 4 3 2 0 1 2 3 3 4 5 5 5 5 5 6 6 6 6 6 7 6 7 6 6 6 7 6 6 6 6 10 13 15 17 17 16 16 16 16 16 16 16 16 16 16 16 15 15 15 14 14 15 15 17 18 20 20 19 18 17 16 15 16 16 16 19 19 18 18 18 18 18 20 23 22 21
6 5 6 5 5 6 5 5 3 3 2 2 2 2 3 2 3 3 3 3 4 5 5 6 6 6 6 7 6 7 7 7 7 7 7 6 6 7 6 7 9 13 14 15 16 15 15 15 16 17 17 17 17 17 17 17 16 16 16 15 15 14 14 15 17 19 21 21 20 18 16 16 16 17 17 20 20 18 18 18 18 19 20 21 21
6 6 6 6 5 5 5 4 3 3 2 2 2 2 3 3 3 3 4 3 4 5 4 5 5 6 6 6 6 7 7 7 7 7 7 6 6 6 6 6 6 8 10 11 13 14 15 15 16 16 16 16 17 17 18 18 18 17 17 16 16 15 15 15 15 16 18 20 21 21 19 18 16 16 17 17 19 22 20 19 19 19 19 20 21
6 5 6 6 5 6 5 4 3 3 2 2 2 1 3 3 3 4 4 4 5 5 5 6 5 5 6 6 6 6 7 7 7 6 6 6 5 6 6 6 6 6 6 8 9 11 14 15 15 15 15 15 16 17 18 18 18 18 18 17 16 16 16 16 16 15 16 18 19 21 22 22 20 19 16 16 19 18 22 23 20 21 21 21 20
5 7 6 6 6 6 5 5 3 3 2 1 2 2 3 3 3 5 3 4 3 4 4 5 6 7 7 6 7 7 6 7 7 6 6 6 5 6 6 6 6 6 6 6 6 9 11 13 14 14 14 15 16 18 19 19 18 18 18 18 17 17 17 17 17 17 17 17 18 19 21 22 22 22 20 18 16 18 18 20 24 24 21 22 21
5 5 7 6 7 6 6 4 4 3 3 1 2 3 3 3 3 4 3 3 3 4 4 5 5 6 6 7 7 7 7 7 7 6 5 5 6 6 6 6 6 6 5 5 6 5 9 11 13 14 14 15 16 18 19 19 19 19 18 18 18 18 19 19 19 18 18 17 18 18 19 20 21 23 22 20 19 17 17 18 19 23 26 24 23
6 6 7 7 7 7 6 5 4 4 3 2 3 3 3 4 3 2 2 2 3 4 5 5 6 6 7 7 7 7 8 7 7 6 4 4 6 6 6 6 6 6 5 5 5 5 6 9 11 13 13 13 16 18 17 18 18 19 18 18 18 19 20 20 19 19 18 17 16 17 17 18 20 21 22 23 21 19 19 19 19 20 21 26 25
6 6 6 6 6 7 6 6 5 4 4 3 2 3 5 4 2 0 1 1 2 4 6 6 6 7 8 8 8 7 8 8 6 4 4 6 6 6 6 6 6 6 5 4 4 5 4 7 9 9 8 9 15 17 17 17 18 19 18 17 18 20 21 21 21 21 21 20 20 20 21 21 21 20 21 22 22 22 21 21 20 20 21 22 24
7 7 7 7 7 6 6 5 5 5 4 4 3 4 3 3 2 0 0 1 3 3 4 5 6 7 8 9 8 9 8 8 5 4 5 4 5 6 5 6 5 4 4 4 4 4 4 4 4 4 5 8 12 16 16 17 18 17 16 17 18 21 21 22 23 23 23 22 22 22 22 23 23 23 22 21 22 23 22 23 22 21 20 21 22
7 7 7 7 7 7 6 5 5 5 5 5 5 4 3 2 1 0 0 0 1 3 3 5 6 6 8 8 7 9 9 8 4 3 4 3 4 5 5 5 4 4 4 4 5 4 4 4 4 4 4 6 10 11 13 16 15 16 18 18 19 19 19 21 23 24 24 23 23 23 22 22 22 23 23 23 22 22 24 24 24 23 22 21 22
7 7 7 7 7 7 6 5 5 6 6 6 6 5 3 3 2 1 1 2 2 2 5 6 6 5 4 6 6 6 9 5 2 3 1 3 5 6 7 6 5 3 3 3 3 5 5 5 5 6 6 4 5 7 10 12 11 15 18 19 18 18 19 22 23 23 22 22 22 23 23 22 22 21 21 22 23 23 23 24 26 25 24 24 24
7 7 7 7 7 7 6 7 6 6 5 5 4 4 4 3 3 2 2 2 1 2 4 6 5 7 10 10 2 3 5 0 1 1 7 8 7 5 5 3 4 3 4 6 6 5 5 6 6 6 5 5 5 6 7 6 7 11 16 18 18 20 21 23 23 22 22 22 22 23 24 25 25 24 23 23 24 24 25 24 25 26 26 25 24
8 7 7 7 7 7 7 7 6 6 6 5 5 4 4 3 3 3 1 2 1 1 2 5 2 5 5 4 7 9 3 4 2 8 8 7 4 3 3 3 4 4 4 4 4 4 5 5 5 5 5 6 6 6 6 6 7 10 12 15 18 20 22 23 22 22 22 23 23 24 24 25 26 26 25 24 24 25 26 27 26 26 27 25 26
8 8 7 7 8 8 6 6 7 6 6 6 5 4 4 3 4 3 2 2 2 1 2 3 2 5 6 1 4 3 10 1 8 5 3 5 2 8 5 6 5 6 5 5 5 4 5 5 6 6 6 7 6 6 6 6 10 12 11 10 11 18 22 23 23 23 24 25 25 25 24 24 24 25 26 25 25 25 25 27 28 28 27 27 26
8 8 8 8 7 7 7 7 6 6 6 6 6 5 5 4 5 3 2 1 1 0 1 3 4 1 1 2 3 3 2 5 12 14 1 5 4 5 6 4 5 5 4 5 5 5 6 6 6 5 6 5 5 6 7 8 8 6 5 7 10 15 22 24 24 24 25 25 25 25 25 24 24 25 25 26 27 26 25 26 27 28 28 28 28
8 8 8 7 7 7 6 6 6 6 6 6 5 5 4 5 4 4 3 3 2 1 2 1 0 3 2 3 3 4 5 5 5 8 6 12 10 6 3 3 3 5 5 6 6 6 5 6 5 6 6 6 6 7 7 6 4 4 6 8 17 22 22 23 24 24 25 25 25 25 25 25 25 25 26 26 27 27 27 26 26 27 28 29 27
8 8 7 7 7 6 6 6 5 5 4 5 5 5 5 4 3 4 4 3 3 1 3 3 3 2 1 2 3 3 2 1 4 5 12 2 3 8 7 6 5 6 8 5 5 7 7 6 6 6 6 6 6 6 4 4 6 9 13 15 20 21 21 22 22 23 24 25 25 26 26 26 27 27 27 27 28 28 29 29 28 27 28 29 29
8 7 7 7 7 7 6 5 6 5 5 6 5 4 5 3 3 3 3 4 4 3 2 0 1 3 0 4 4 3 3 3 3 4 7 13 6 3 4 9 8 6 5 9 10 8 6 6 8 7 6 6 6 5 5 5 5 6 7 12 18 21 22 22 22 22 23 24 25 26 26 27 28 29 29 29 29 30 30 30 30 29 29 30 30
7 7 7 7 6 6 6 6 6 5 5 5 4 5 5 4 3 4 3 3 3 3 2 2 2 4 4 3 2 2 3 3 4 2 4 6 14 1 6 2 3 8 12 9 6 7 8 8 7 7 7 7 6 5 4 4 5 5 6 13 18 20 22 22 22 23 23 24 24 25 26 27 27 29 29 30 30 30 30 31 30 31 31 31 31
7 7 7 6 6 6 6 6 6 5 5 5 4 5 4 4 4 3 3 3 3 3 3 3 3 3 3 4 3 3 3 2 1 1 3 6 11 12 9 14 13 4 7 11 10 7 7 8 9 8 7 6 6 5 4 5 5 5 6 13 18 20 21 22 23 22 23 23 24 25 26 27 28 29 29 30 30 30 31 31 31 32 32 31 31
7 7 7 7 6 6 6 6 6 5 5 5 5 5 5 4 4 3 3 4 3 3 1 1 3 3 4 5 5 5 5 4 5 4 2 5 9 13 11 8 11 17 5 7 5 8 10 8 9 7 6 7 6 6 5 5 6 7 13 16 18 19 21 22 23 24 25 26 26 27 27 27 27 28 29 30 31 32 32 33 33 32 32 33 32
8 8 8 8 8 7 6 6 6 6 6 5 5 5 5 4 3 4 4 4 3 2 2 2 3 4 4 5 5 5 5 5 4 4 5 7 6 13 13 14 14 8 9 8 8 10 8 8 7 7 9 7 6 5 5 5 5 10 10 11 17 20 22 23 23 23 23 24 25 25 26 26 27 27 28 29 30 31 32 33 33 33 33 34 34
10 10 10 11 9 9 8 8 7 6 6 5 4 5 5 5 5 4 4 2 2 2 2 3 4 5 6 4 5 4 5 4 2 2 3 4 6 11 12 8 15 18 6 6 8 3 7 9 7 7 7 6 6 4 3 4 4 6 12 9 17 18 18 19 21 22 23 25 27 28 29 29 29 29 29 29 30 32 32 32 33 33 35 36 35
14 14 12 11 9 8 8 8 7 6 6 6 5 5 6 6 4 4 3 3 2 2 3 3 4 4 3 5 4 5 5 3 3 3 5 5 7 8 12 11 10 16 15 8 4 7 1 3 3 5 6 5 4 3 4 5 5 8 13 12 11 14 18 20 22 24 26 27 28 30 31 32 32 32 32 32 32 32 33 33 34 34 34 36 36
12 10 10 11 10 9 8 8 8 7 6 6 6 5 5 4 4 3 3 2 2 2 3 4 5 5 4 4 5 4 3 2 2 4 4 5 6 7 7 15 17 11 13 16 12 8 8 5 7 5 5 4 3 2 3 4 7 14 15 9 8 14 17 21 25 29 30 31 32 32 30 29 29 30 30 31 32 32 33 33 34 34 34 35 35
8 9 10 11 10 10 9 8 7 7 7 6 6 6 5 5 4 3 3 2 3 3 3 3 5 4 4 4 3 4 2 2 3 5 5 6 6 5 6 7 10 20 15 14 13 12 1 6 1 5 1 2 3 3 3 6 7 15 15 11 10 11 18 25 29 30 30 29 30 29 30 30 31 32 33 33 34 34 34 34 34 33 35 37 35
9 9 11 9 9 9 9 8 8 7 7 6 6 6 5 5 5 3 3 2 3 3 3 4 4 4 4 4 4 4 2 1 3 4 5 5 6 5 5 6 7 10 13 16 24 10 5 4 8 1 3 5 1 3 9 9 11 14 11 11 13 12 17 25 28 28 28 30 29 30 30 31 31 32 32 33 34 35 36 36 35 34 32 34 37
10 9 10 10 9 9 9 8 7 7 7 6 6 6 6 5 4 3 3 3 3 3 3 4 4 3 4 4 3 4 2 2 4 4 4 5 5 5 5 4 4 8 9 13 23 17 11 9 6 9 3 3 9 12 8 10 14 16 12 11 10 12 23 28 30 31 31 31 31 31 31 31 32 32 33 34 34 36 37 37 36 36 36 36 36
10 10 10 10 9 8 8 8 7 7 7 7 6 6 5 5 4 4 3 3 4 4 4 4 4 3 4 4 3 2 1 2 3 3 4 4 6 5 5 5 5 6 9 10 15 23 1 16 7 1 12 15 8 10 12 9 10 15 11 11 13 19 29 24 30 30 31 31 30 31 32 33 33 33 34 34 35 35 36 37 37 37 37 37 37
11 11 11 11 10 10 8 8 8 7 7 6 6 6 6 5 5 5 4 4 4 4 4 3 3 3 3 3 2 2 2 2 3 4 4 4 3 4 3 4 4 5 6 9 13 25 19 8 18 13 6 15 14 11 12 11 9 18 13 12 15 24 17 14 23 29 29 31 32 33 33 33 33 34 35 35 36 36 36 36 37 38 38 38 38
11 12 12 12 11 10 10 9 9 8 8 7 6 6 6 5 5 5 4 5 5 5 3 4 3 3 3 3 3 3 1 3 4 4 4 4 4 5 5 5 6 6 7 9 13 20 22 11 11 15 11 12 17 5 10 12 10 7 13 13 14 12 13 11 11 21 29 31 33 34 34 34 34 34 34 35 35 36 36 36 37 37 37 38 38
13 13 13 11 10 11 10 9 9 8 8 8 7 7 7 7 6 5 6 6 5 5 4 4 4 4 3 3 3 3 2 4 5 5 5 5 5 6 6 6 6 6 6 8 11 14 23 20 13 13 13 7 17 14 10 12 12 9 11 13 11 12 12 12 12 14 28 31 32 33 34 35 33 33 33 33 34 35 35 36 37 37 38 38 37
10 12 12 12 12 11 10 10 10 9 9 9 8 8 8 8 7 6 6 6 6 5 5 5 4 3 3 3 4 3 3 4 5 6 5 6 5 7 7 6 7 7 7 8 10 13 18 21 16 16 16 10 10 14 13 11 13 12 13 14 14 11 11 12 13 12 24 30 32 33 33 33 33 32 33 33 34 34 35 36 36 37 38 37 36
13 10 11 12 11 12 11 11 11 10 10 9 9 8 8 8 7 7 6 6 5 5 5 4 4 3 3 4 4 3 4 6 7 6 6 6 6 6 7 7 8 8 8 9 11 12 14 18 20 14 14 16 12 9 9 11 14 13 12 12 12 15 13 12 12 13 19 30 32 33 32 31 32 33 33 33 33 34 35 35 36 36 38 38 39
12 11 10 11 12 12 12 13 12 11 11 10 9 8 7 6 7 6 6 5 4 4 5 5 4 3 4 5 5 4 5 7 7 7 6 7 7 6 7 7 8 8 9 10 11 13 15 18 19 16 14 15 15 15 13 15 16 13 12 14 13 13 15 14 12 12 22 31 32 32 31 32 32 32 32 32 33 33 34 34 34 35 36 39 40
12 12 13 12 12 13 11 11 11 10 9 9 9 8 7 7 6 6 5 5 5 5 5 5 4 4 5 6 6 6 7 8 8 7 7 8 7 8 9 9 10 10 12 13 13 14 16 17 19 19 16 14 16 17 14 13 16 16 12 14 13 12 13 14 13 10 9 10 11 13 19 23 27 31 33 32 33 35 34 35 34 34 37 37 39
13 12 11 12 9 10 10 10 10 10 9 9 8 7 7 7 6 6 5 5 5 5 5 5 5 6 6 6 6 7 8 8 8 8 8 8 8 11 11 12 13 13 13 12 12 14 15 16 15 18 20 13 12 20 15 15 17 15 15 16 18 13 10 12 15 10 9 14 19 28 27 25 29 27 30 34 36 35 34 33 34 36 38 38 39
13 12 13 12 9 8 9 9 9 8 9 8 8 7 7 7 6 5 5 5 5 5 6 6 6 7 7 7 8 8 9 8 9 9 10 10 10 12 11 11 12 13 12 12 12 14 14 17 19 13 17 15 13 15 18 14 16 16 15 13 17 19 13 12 13 14 13 12 16 14 18 22 22 27 31 31 31 29 29 29 32 36 40 42 40
9 10 9 10 11 10 8 9 9 8 8 8 7 8 8 7 6 6 6 6 6 6 6 6 7 7 7 7 8 8 9 13 17 15 14 14 10 9 9 9 10 11 13 12 11 13 15 15 16 14 16 15 15 14 16 15 17 15 17 12 13 15 13 17 13 11 12 12 13 13 15 11 13 12 12 10 13 22 24 30 27 37 42 40 35
9 9 9 9 9 10 10 9 8 8 7 6 9 15 11 7 7 6 5 5 6 6 6 7 7 7 7 8 8 15 17 17 17 19 19 20 21 17 13 11 11 11 12 12 11 9 10 12 12 12 13 14 15 15 15 13 17 15 15 16 18 15 15 18 17 11 10 12 13 14 14 9 10 12 10 12 13 15 14 16 15 19 24 32 33
10 9 10 11 10 10 11 11 11 9 8 7 16 15 15 16 9 6 6 6 5 7 7 7 7 7 8 9 9 11 13 15 14 19 19 20 20 21 24 24 21 16 14 14 13 11 12 15 14 13 14 16 21 15 18 15 17 16 18 20 17 14 14 16 21 13 6 12 12 12 14 6 6 13 13 13 13 11 13 14 26 32 33 34 34
10 10 11 11 10 10 9 9 8 6 6 11 16 16 15 15 13 8 6 6 6 7 7 7 7 7 8 8 9 7 8 10 10 11 14 19 21 22 24 24 25 26 25 19 15 13 13 14 14 16 15 14 19 17 14 14 16 18 20 17 17 16 15 16 16 18 3 5 8 12 19 10 7 12 14 12 12 12 14 22 31 33 35 36 34
10 12 11 10 9 9 9 9 8 8 7 14 16 16 15 14 15 12 7 7 6 6 7 7 7 8 8 8 8 9 7 14 12 11 11 12 17 23 24 25 26 27 26 29 28 22 16 16 16 19 17 12 15 21 16 15 17 22 17 19 18 14 15 16 17 16 11 5 11 12 18 18 3 12 13 14 12 12 15 23 30 33 35 34 34
11 10 10 11 10 10 10 10 9 8 8 13 16 16 14 14 14 12 5 6 6 6 7 8 7 8 9 9 8 9 9 9 10 11 11 12 12 13 13 13 13 19 24 27 29 30 26 19 19 20 21 18 19 18 18 18 19 18 18 17 18 16 16 20 21 22 16 6 12 11 17 22 8 13 17 15 12 12 13 21 31 34 33 33 31
13 13 13 12 10 10 9 7 7 7 6 14 15 14 13 13 13 11 5 6 6 6 5 5 7 9 9 9 9 10 10 11 10 12 13 12 12 12 13 14 13 12 13 15 17 16 18 18 19 21 23 22 23 23 22 23 20 20 17 18 18 17 20 18 20 20 18 11 11 13 16 20 8 12 18 15 13 13 14 21 31 32 33 32 30
7 7 7 7 10 10 9 8 8 5 7 15 14 14 14 13 14 7 5 6 5 3 3 7 8 8 8 9 9 10 11 11 14 19 18 14 13 14 14 13 14 16 16 16 24 25 23 20 18 17 16 18 25 24 22 20 14 14 15 16 16 15 16 18 19 16 15 11 11 13 14 18 8 11 17 12 12 14 15 13 21 29 31 32 32
11 11 11 10 10 10 11 9 8 6 7 13 15 15 14 14 11 5 6 4 3 4 5 7 7 8 8 9 10 10 11 11 15 19 20 20 13 13 15 18 16 15 13 14 20 25 26 27 31 33 35 35 36 37 37 39 30 24 19 19 18 11 11 13 16 16 15 11 9 13 13 18 10 11 15 13 12 13 15 15 15 22 32 32 30
12 12 9 6 6 7 8 9 8 8 7 11 16 14 14 14 11 6 4 5 4 3 4 7 7 8 9 15 13 10 11 12 16 19 20 17 13 13 14 14 15 14 13 12 13 15 25 29 31 32 31 30 31 34 36 36 36 30 18 20 19 12 16 14 17 14 14 8 8 8 12 16 11 10 13 13 13 12 13 13 15 16 24 23 28
12 9 7 7 6 4 5 6 13 9 7 10 15 14 15 15 11 6 6 4 4 5 5 6 7 7 8 9 12 12 12 13 18 18 20 17 13 12 12 15 16 17 16 16 15 15 14 16 16 16 16 20 19 18 22 36 36 32 22 19 13 14 15 14 15 13 15 12 8 10 14 16 12 12 11 12 12 12 10 13 13 14 13 13 14
Wind_Direction
134 141 128 114 103 97 90 93 82 71 72 62 71 42 16 5 9 13 12 1 350 339 337 332 333 335 340 330 325 321 318 312 306 303 299 298 301 302 310 316 320 321 321 323 324 324 324 323 322 323 325 326 326 325 324 324 324 324 323 321 320 318 312 306 302 301 302 300 295 292 286 279 268 251 251 248 240 237 241 245 240 227 218 222 227
137 139 120 121 110 103 94 95 92 85 80 78 86 94 34 12 20 23 16 2 354 336 339 331 333 333 334 326 321 319 316 315 316 317 314 314 309 309 314 316 318 321 322 321 322 325 325 326 327 327 326 326 326 325 326 327 327 329 328 326 323 321 321 319 312 304 299 298 294 291 290 285 279 271 256 250 246 242 237 240 242 237 227 224 228
132 132 122 126 119 114 108 105 88 90 102 89 47 70 58 55 43 33 19 3 346 338 340 331 329 329 324 324 315 316 314 312 311 311 314 314 314 313 312 313 313 314 316 318 322 325 327 329 330 330 328 327 326 327 328 329 330 330 330 328 325 322 321 320 322 319 310 302 297 291 285 286 281 272 268 259 248 249 247 245 246 243 240 235 234
137 131 131 129 130 125 118 104 111 99 97 97 62 55 61 45 54 51 27 15 348 340 332 333 323 316 317 314 313 314 308 307 304 307 306 310 314 314 311 309 309 307 309 312 318 323 325 328 329 331 330 329 329 329 329 330 329 329 328 328 327 325 323 320 318 319 319 314 305 297 291 284 282 278 270 268 262 248 246 244 243 244 239 237 231
147 139 136 138 138 124 112 119 122 107 87 103 79 49 49 50 40 37 25 20 6 335 328 318 313 309 310 302 308 303 297 297 298 300 302 305 307 304 300 299 297 300 299 301 307 314 319 323 327 327 328 330 331 331 330 329 328 327 326 327 327 327 327 326 324 319 315 314 313 309 301 293 280 279 279 270 263 262 251 244 241 240 239 236 232
146 141 137 140 137 125 127 126 134 112 103 92 72 71 66 60 37 39 19 19 353 329 324 319 305 300 298 293 293 286 289 289 285 287 292 296 296 293 293 291 290 289 289 292 297 301 306 314 319 321 325 330 332 329 327 326 327 327 327 327 327 328 329 329 327 324 320 315 313 312 312 310 304 291 277 270 271 261 261 256 246 240 240 239 236
152 143 145 139 135 127 127 146 137 121 98 121 115 74 80 55 46 42 24 3 334 312 311 300 304 305 300 293 286 287 282 279 284 291 297 300 295 287 282 280 280 283 285 288 293 293 292 297 305 313 320 327 329 328 326 325 326 327 328 328 329 330 330 331 330 328 324 320 316 314 314 313 310 306 297 283 271 264 260 258 258 254 243 243 240
153 146 141 141 135 137 148 147 142 127 133 121 106 89 76 58 44 75 26 335 331 311 309 302 296 294 290 289 283 284 284 285 287 292 293 295 285 282 278 274 273 273 273 274 275 278 281 286 292 302 313 321 325 325 323 323 325 327 327 327 330 332 332 331 329 327 325 322 318 315 313 311 310 307 303 295 284 276 266 260 255 256 258 252 245
157 152 143 143 139 141 156 151 150 145 140 128 100 113 93 89 57 61 73 311 313 307 307 303 302 294 291 288 287 285 284 283 283 287 295 277 280 276 277 271 267 265 269 271 271 275 287 285 287 294 302 310 320 320 320 321 324 325 324 327 330 332 330 328 327 326 325 322 318 314 312 310 307 305 303 300 293 281 274 267 259 254 254 257 254
161 154 147 151 147 146 155 152 147 140 138 121 124 97 104 111 105 156 66 309 300 302 303 305 303 300 297 291 289 282 279 279 280 288 278 286 284 280 271 274 273 270 270 280 285 297 296 297 299 303 310 311 320 319 317 320 323 322 322 325 329 329 328 327 327 328 327 326 325 325 324 322 315 306 300 299 297 292 283 274 267 260 256 256 256
164 159 153 153 151 151 148 159 146 145 137 134 112 109 108 116 122 180 254 251 253 270 283 296 303 295 291 286 282 281 275 271 281 279 281 274 282 282 293 280 281 292 299 298 301 299 299 295 292 293 299 315 318 315 316 320 323 323 324 324 324 326 324 325 325 324 323 321 321 321 320 317 315 312 306 298 295 294 291 285 274 266 260 257 257
167 162 158 158 155 156 154 158 158 149 149 141 143 138 142 120 116 127 345 290 258 276 307 316 297 289 281 277 270 277 275 271 277 265 298 307 288 276 276 278 284 291 300 309 313 312 317 311 307 307 319 320 313 310 319 325 324 324 320 317 318 320 321 324 324 321 320 319 319 318 316 313 312 309 305 303 296 290 290 289 283 271 264 260 259
169 163 165 159 155 154 155 167 167 161 161 159 160 155 151 146 133 106 40 17 347 6 329 324 324 307 241 255 278 257 266 266 258 317 30 299 278 296 286 289 297 307 301 322 337 342 334 320 314 317 315 316 308 309 315 317 318 319 315 315 315 316 319 319 316 313 312 313 313 313 311 311 310 309 305 301 300 296 288 285 286 283 271 266 263
170 167 166 161 156 159 165 172 168 169 164 160 144 141 129 110 118 47 35 40 345 3 325 357 14 359 332 331 258 294 260 334 67 79 350 319 306 297 298 300 310 314 338 352 336 327 318 311 309 311 314 311 306 310 310 308 311 316 317 311 311 309 310 312 309 307 307 308 309 309 309 309 309 308 308 307 305 301 297 291 283 281 280 271 267
172 171 168 168 164 162 172 171 171 164 149 139 136 128 131 118 102 118 35 11 354 304 24 62 333 318 283 326 336 1 337 7 354 344 305 294 287 289 297 311 301 314 318 325 324 322 312 306 306 308 306 304 303 300 301 297 300 303 307 308 307 307 306 305 303 303 304 305 304 304 303 304 304 304 303 303 301 301 301 300 297 288 279 280 272
174 171 171 169 167 170 170 172 176 167 156 146 138 136 122 108 108 107 102 26 27 314 48 46 47 353 4 40 291 4 329 202 312 277 266 282 17 328 326 315 317 321 331 326 314 306 296 296 295 295 292 293 292 294 295 298 294 296 294 296 305 306 304 301 299 299 300 300 300 300 299 298 299 301 302 303 301 299 297 298 298 300 295 281 278
173 173 170 171 170 170 172 176 166 163 148 142 145 155 152 146 133 119 130 156 238 262 319 58 357 350 178 2 346 6 213 294 337 307 11 306 313 310 324 328 324 320 321 302 298 294 296 294 290 288 288 287 293 294 291 287 289 288 302 311 307 301 298 294 294 296 297 298 298 298 298 297 297 297 298 299 300 298 297 295 294 295 296 294 285
175 173 171 168 172 174 173 167 165 158 150 150 149 136 137 132 150 137 142 166 176 229 277 347 43 317 262 187 193 222 305 314 351 298 343 300 297 318 324 319 321 319 307 301 295 294 286 283 281 282 281 282 282 282 280 279 285 301 304 303 302 297 292 291 292 294 296 297 298 298 297 296 295 295 295 294 295 296 295 294 293 293 293 292 295
178 174 173 173 171 172 171 169 164 159 151 139 148 154 148 147 133 122 150 150 131 231 271 285 9 296 277 269 276 265 210 298 259 308 314 341 14 329 327 327 312 299 297 284 289 294 286 283 286 285 279 274 276 275 275 286 295 301 301 297 292 291 292 293 293 293 295 297 297 298 298 297 297 296 295 293 293 293 292 291 290 290 291 293 292
172 176 173 172 169 171 169 164 161 163 150 155 156 154 132 124 127 132 130 148 162 190 226 195 283 277 351 297 292 292 288 262 236 238 272 297 289 285 267 291 307 304 288 296 292 280 286 288 289 286 282 276 271 269 278 286 286 283 281 279 289 293 295 295 296 296 296 297 297 296 296 295 295 294 293 291 290 289 288 287 287 288 289 289 289
175 173 175 171 171 170 166 163 162 166 155 152 155 146 146 139 128 128 149 158 168 184 154 180 185 251 303 287 276 262 294 271 274 258 276 299 295 288 305 211 247 283 289 282 281 291 287 284 281 283 287 288 280 274 274 278 276 279 276 284 291 295 297 298 298 298 296 296 295 294 294 294 293 293 292 290 289 288 286 285 285 286 287 287 284
176 174 170 174 169 166 166 167 168 166 158 160 153 141 135 136 145 153 160 175 188 174 177 198 205 234 224 247 284 309 316 303 257 338 266 227 273 305 311 314 308 264 284 287 280 266 275 290 287 283 282 278 278 278 278 277 284 285 279 285 296 300 301 301 299 298 299 300 300 299 297 296 294 293 292 290 289 287 285 284 283 283 283 284 283
168 174 172 170 172 171 169 170 167 165 156 156 163 152 146 143 150 160 181 183 187 163 183 194 207 227 236 222 240 242 241 262 283 291 275 294 308 298 307 295 293 304 248 237 264 277 283 275 279 282 279 280 277 281 280 278 282 281 289 296 301 303 304 303 303 302 301 300 298 297 295 293 291 289 288 286 286 285 283 282 282 281 282 282 280
172 170 178 175 172 174 169 165 168 164 165 165 158 147 143 138 142 155 165 166 149 140 161 213 232 235 234 228 234 227 235 239 257 264 283 291 295 295 302 313 302 258 296 280 246 258 244 253 259 275 276 277 276 276 281 288 283 289 299 303 307 305 302 302 302 303 302 301 300 299 297 296 295 292 288 286 283 282 281 280 279 279 277 276 275
182 178 184 178 172 171 171 170 170 171 165 158 156 141 135 137 145 152 155 152 156 162 194 226 220 225 229 231 216 225 235 237 249 271 290 292 299 299 293 305 294 300 278 288 304 235 254 256 245 251 243 260 284 284 282 287 284 293 306 303 303 304 306 307 307 305 304 304 305 303 301 299 298 297 295 292 287 284 280 278 278 277 275 274 271
179 186 179 173 173 173 169 168 168 165 163 159 146 140 137 138 145 150 155 162 142 168 212 233 233 231 224 228 231 230 241 245 261 284 282 294 286 283 300 296 283 292 301 290 263 306 239 192 226 226 255 255 249 290 296 290 295 297 303 304 306 308 306 305 303 302 302 300 298 297 296 295 293 291 290 290 289 286 283 280 277 275 274 272 273
180 174 164 170 170 167 169 164 167 163 156 148 141 134 137 134 143 157 150 154 170 185 222 224 235 239 237 227 235 239 239 241 252 258 250 252 261 280 300 309 306 285 298 303 301 252 256 267 211 226 204 262 270 252 283 296 304 308 308 307 305 306 306 303 300 299 297 294 291 289 286 285 288 289 288 288 288 288 287 284 279 275 273 272 270
169 159 170 168 168 166 163 164 160 154 150 145 141 139 140 141 145 142 154 146 174 205 224 222 237 239 242 241 236 254 240 243 243 246 246 251 254 266 274 287 299 308 311 296 300 295 143 278 151 196 191 161 285 288 303 316 311 308 308 304 297 297 299 299 297 295 294 292 291 289 287 288 288 288 288 288 287 285 284 283 282 282 279 273 274
164 166 163 166 163 161 160 158 157 151 145 146 144 144 145 149 154 153 165 179 193 221 220 226 238 235 245 241 239 251 250 226 248 244 249 253 251 247 242 249 278 286 303 311 299 294 303 109 326 207 62 338 336 317 321 308 300 299 293 296 297 296 295 296 295 294 294 293 292 291 290 288 287 287 285 284 285 285 282 279 279 280 280 277 272
163 164 160 159 158 158 155 157 154 150 151 148 145 146 143 150 154 162 169 174 211 226 224 227 240 228 239 248 238 251 243 229 239 251 248 248 251 245 239 245 234 261 281 290 293 291 304 285 164 292 330 324 324 310 299 298 299 301 295 292 294 296 299 298 297 294 292 291 290 289 288 288 288 287 287 286 284 283 281 279 277 276 276 276 275
157 157 157 157 157 157 156 156 155 153 149 147 144 144 146 151 158 167 177 182 206 226 231 225 236 222 237 246 238 245 237 235 255 260 258 255 259 255 247 251 237 246 270 276 287 286 109 295 292 145 313 309 309 306 307 298 300 304 303 304 301 299 297 294 292 290 289 290 289 288 287 288 287 286 285 284 283 280 278 277 276 275 274 273 271
164 158 158 160 158 158 160 157 156 153 152 149 150 148 148 158 163 171 188 186 207 220 230 219 219 220 231 248 258 266 273 269 264 260 258 257 255 252 254 248 251 252 265 268 265 278 290 285 296 302 305 306 308 308 300 301 302 301 299 296 296 296 288 283 286 287 287 288 288 288 287 287 285 285 284 283 282 280 278 276 276 275 273 272 269
159 160 162 163 162 161 159 162 161 162 156 157 156 152 154 162 169 177 187 190 207 222 216 235 222 227 235 245 258 258 254 268 263 260 256 262 261 261 259 252 255 250 248 260 268 280 288 283 289 298 314 316 298 308 298 294 299 304 302 293 284 276 283 280 281 282 285 286 286 286 286 285 284 283 282 281 280 279 278 277 276 274 272 270 268
165 163 164 162 161 160 161 163 161 159 158 157 158 154 162 166 176 175 184 192 206 217 212 231 224 219 217 237 253 255 249 258 264 258 260 260 259 261 251 248 250 246 239 254 268 277 284 297 292 294 292 299 292 303 300 302 298 297 287 289 284 285 282 281 281 279 282 284 284 284 285 285 284 282 281 280 280 279 278 277 276 275 273 268 268
168 166 164 162 163 161 161 162 161 162 161 161 161 159 167 171 175 182 186 193 202 209 214 224 221 214 231 245 255 251 251 257 253 255 251 254 252 253 253 248 251 247 246 246 263 270 278 284 294 299 297 295 273 294 297 288 285 288 283 281 284 278 268 268 273 274 279 282 283 282 283 283 283 283 283 283 282 280 279 277 275 272 270 273 268
167 168 163 162 161 164 163 164 165 163 163 163 163 166 170 172 176 185 180 179 189 200 218 227 225 219 236 254 255 248 247 251 253 252 246 248 248 249 253 249 249 250 245 244 244 258 271 278 284 282 290 296 288 278 282 281 285 286 280 278 267 275 275 268 264 269 276 280 280 281 281 282 285 286 284 282 281 280 278 276 274 272 269 266 269
167 160 165 165 165 167 170 170 167 167 166 162 161 164 166 168 174 179 180 183 195 200 214 225 230 224 234 243 254 248 246 252 255 250 248 251 248 248 252 251 249 248 241 233 236 241 254 263 275 276 280 280 283 286 292 299 293 282 276 274 274 268 272 271 263 265 273 278 280 280 281 282 283 281 282 284 282 281 278 277 274 273 269 267 265
165 170 168 172 174 174 171 168 163 160 157 158 160 162 162 162 165 168 178 190 200 211 214 222 223 230 236 242 247 246 246 252 257 254 253 255 257 256 256 254 249 243 240 237 237 238 244 257 267 278 272 275 289 283 282 279 285 290 287 280 269 259 266 273 269 264 266 265 272 274 276 278 278 279 281 281 283 282 280 277 275 273 270 265 263
167 170 174 171 174 167 163 156 159 157 156 155 157 159 159 161 165 174 181 193 210 214 219 223 229 229 233 236 238 239 245 249 252 255 261 259 255 252 248 253 251 250 249 248 244 244 246 252 256 262 271 265 266 282 279 279 276 281 286 295 290 279 256 266 279 266 260 274 270 275 277 278 280 282 280 280 282 281 277 276 274 273 270 267 264
173 173 171 170 162 157 157 155 153 150 151 154 155 156 159 162 168 170 179 197 217 225 227 229 227 231 233 238 239 240 246 248 249 252 251 258 259 261 258 253 252 252 251 247 246 249 251 256 260 262 261 267 265 267 273 282 277 281 273 279 282 289 288 268 256 275 273 264 273 272 269 272 274 275 278 277 279 282 285 286 286 280 272 265 262
169 169 164 158 156 152 149 150 150 152 156 161 162 163 161 168 168 179 189 201 215 222 231 236 241 242 240 238 241 239 241 251 257 261 261 260 259 259 254 252 254 254 257 247 245 252 256 257 260 256 263 264 264 270 269 274 263 276 276 270 270 274 282 283 271 242 254 266 264 267 267 262 269 263 261 267 278 285 286 286 282 279 273 264 261
160 156 154 155 157 157 152 152 152 155 162 161 174 176 174 166 168 172 184 199 208 221 235 243 245 246 250 252 252 260 265 268 270 272 274 275 274 273 275 271 267 268 269 270 265 257 253 253 249 255 254 256 261 260 263 263 272 277 274 277 278 282 280 280 278 266 261 255 265 265 263 252 255 267 267 272 274 275 277 282 286 291 292 285 269
156 155 154 157 163 165 162 160 161 164 169 172 181 185 183 179 171 173 176 188 202 224 230 242 254 258 261 261 266 268 270 273 274 274 277 276 276 276 277 278 278 279 282 280 275 266 267 268 272 268 261 270 276 273 276 279 280 275 280 282 279 278 279 286 288 287 221 254 253 268 274 229 239 274 272 263 268 269 272 273 278 281 279 274 278
162 159 164 168 163 161 160 160 158 155 160 181 184 186 187 188 180 170 176 186 206 221 233 242 251 260 266 269 269 267 268 267 263 264 270 277 281 280 281 280 279 278 277 277 281 280 274 277 276 272 271 262 276 275 271 273 279 278 277 273 272 275 273 277 276 281 272 206 279 286 282 265 218 263 272 264 266 262 268 276 278 278 273 272 272
156 165 167 160 164 162 162 157 158 168 169 185 183 184 186 189 195 188 176 191 209 221 234 244 253 258 263 268 271 269 267 273 278 278 277 273 274 278 281 281 280 280 280 278 278 277 280 278 277 279 275 282 277 275 272 276 277 279 276 275 273 268 265 267 272 277 256 211 273 276 281 278 220 272 267 268 265 268 273 276 275 274 272 269 267
164 165 162 164 164 168 171 169 165 167 168 182 181 183 184 192 196 197 179 197 216 227 234 244 248 259 265 266 269 273 273 276 275 276 277 275 273 270 267 265 265 269 275 279 282 283 282 280 278 276 276 272 271 274 273 270 270 268 272 269 266 262 260 260 266 267 267 208 253 274 277 275 269 272 271 272 267 266 265 270 275 276 268 263 263
169 170 168 167 173 172 171 166 153 163 169 179 179 180 184 191 194 195 188 198 216 224 221 241 261 261 264 265 268 271 273 276 275 277 281 281 280 280 278 275 273 277 278 276 272 269 270 266 266 266 270 269 268 270 272 272 261 262 261 261 260 256 261 262 261 258 269 244 226 248 262 275 269 267 269 271 271 266 263 271 271 269 264 261 263
157 151 160 165 169 171 168 163 160 148 165 177 175 179 185 187 187 188 183 201 193 204 252 255 255 259 259 263 266 268 273 276 279 284 288 290 289 288 289 287 280 273 268 272 283 286 284 280 276 275 274 277 278 278 280 277 267 262 259 256 258 259 263 263 262 265 257 251 221 236 252 268 252 256 269 265 261 267 263 253 264 268 269 265 262
164 169 172 173 172 168 166 167 156 148 163 177 177 180 183 183 185 171 178 166 199 222 233 249 256 259 260 260 262 268 275 277 284 289 292 296 296 295 287 281 278 279 283 288 291 293 293 293 292 290 288 287 287 286 285 286 286 288 291 285 272 260 251 254 261 264 263 261 226 218 242 263 252 250 265 262 257 262 268 266 263 261 264 260 257
170 173 161 141 154 162 162 163 163 153 161 179 179 179 179 182 178 159 174 176 175 195 228 244 254 256 258 263 267 274 281 284 285 289 296 300 291 283 281 286 294 292 290 298 302 295 291 288 287 287 288 291 296 296 295 293 292 291 286 279 280 283 272 265 274 274 275 250 234 205 254 255 260 239 258 265 263 252 258 261 262 258 256 256 258
170 155 151 141 140 140 154 155 169 161 154 175 179 177 179 182 182 160 163 150 189 221 227 240 250 257 259 264 275 279 280 282 288 295 297 297 293 296 303 301 298 300 303 306 300 291 294 306 304 307 302 297 294 289 285 286 285 282 274 269 274 265 266 267 265 273 274 255 220 205 245 258 252 245 247 271 266 258 242 255 256 256 248 243 243